Home   Weather   Greenville   Past weeks
Flag for USA

Past Weather in Greenville, North Carolina, USA — Yesterday and Last 2 Weeks

Now
91 °F

Sunny.


Feels Like: 100 °F
Forecast: 94 / 77 °F
Wind: 8 mph from Southwest

Location: Greenville Airport

Current Time: Jul 18, 2019 at 1:41:18 pm

Latest Report: Jul 18, 2019 at 1:15 pm


Visibility: 10 mi

Pressure: 29.98 "Hg

Humidity: 56%

Dew Point: 73 °F

Location of GreenvilleLocation

Past Weather in Greenville — Graph

°F

Greenville Temperature Yesterday

Maximum temperature yesterday: 95 °F (at 1:15 pm)
Minimum temperature yesterday: 75 °F (at 9:15 pm)
Average temperature yesterday: 85 °F

High & Low Weather Summary for the Past Weeks

 TemperatureHumidityPressure
High99 °F (Jul 3, 3:10 pm)100% (Jul 4, 6:50 am)30.15 "Hg (Jul 4, 6:50 am)
Low68 °F (Jul 10, 6:10 am)31% (Jul 3, 4:10 pm)29.84 "Hg (Jul 8, 3:50 pm)
Average82 °F76%30.01 "Hg
* Reported Jul 3 12:10 pm — Jul 18 12:15 pm, Greenville. Weather by CustomWeather, © 2019

Note: Actual official high and low records may vary slightly from our data, if they occured in-between our weather recording intervals... More about our weather records

Advertising

Greenville Weather History for the Previous 24 Hours

Scroll right to see more
 ConditionsComfort  
Time TempWeatherWind HumidityBarometerVisibility
12:15 pm
Thu, Jul 18
90 °FSunny.12 mph59%29.99 "Hg7 mi
11:55 am90 °FSunny.12 mph59%29.99 "Hg10 mi
11:35 am90 °FSunny.13 mph59%29.99 "Hg10 mi
11:15 am88 °FSunny.9 mph62%30.00 "Hg10 mi
10:55 am88 °FSunny.9 mph62%30.00 "Hg10 mi
10:35 am86 °FSunny.8 mph66%30.00 "Hg10 mi
10:15 am84 °FSunny.7 mph70%30.00 "Hg7 mi
9:55 am84 °FSunny.9 mph70%30.00 "Hg10 mi
9:35 am82 °FScattered clouds.5 mph84%30.00 "Hg10 mi
9:15 am81 °FScattered clouds.6 mph89%30.00 "Hg10 mi
8:55 am81 °FPartly sunny.8 mph89%30.00 "Hg10 mi
8:35 am81 °FOvercast.7 mph89%30.01 "Hg10 mi
12:35 am81 °FClear.10 mph84%30.02 "Hg10 mi
12:15 am81 °FClear.13 mph84%30.01 "Hg10 mi
11:55 pm
Wed, Jul 17
81 °FClear.10 mph89%30.00 "Hg10 mi
11:35 pm81 °FClear.10 mph89%30.01 "Hg10 mi
11:15 pm81 °FClear.9 mph84%30.01 "Hg10 mi
10:35 pm79 °FClear.8 mph84%30.00 "Hg10 mi
10:15 pm81 °FClear.8 mph79%30.00 "Hg10 mi
9:55 pm79 °FClear.8 mph79%30.00 "Hg10 mi
9:35 pm77 °FClear.5 mph79%30.00 "Hg10 mi
9:15 pm75 °FPassing clouds.5 mph83%30.00 "Hg10 mi
8:55 pm77 °FRain. Partly cloudy.16 mph74%30.00 "Hg7 mi
8:35 pm88 °FClear.28 mph62%30.01 "Hg10 mi
8:15 pm88 °FSunny.13 mph66%29.99 "Hg10 mi
7:55 pm90 °FSunny.13 mph67%30.00 "Hg10 mi
7:35 pm90 °FSunny.13 mph67%29.98 "Hg10 mi
7:15 pm91 °FSunny.13 mph56%29.99 "Hg10 mi
6:55 pm91 °FSunny.9 mph56%29.99 "Hg7 mi
6:35 pm95 °FSunny.10 mph50%29.99 "Hg10 mi
6:15 pm95 °FSunny.9 mph50%29.99 "Hg10 mi
5:55 pm95 °FSunny.9 mph50%29.98 "Hg10 mi
5:35 pm95 °FSunny.8 mph50%29.99 "Hg10 mi
5:15 pm95 °FSunny.10 mph50%30.00 "Hg7 mi
4:55 pm95 °FSunny.10 mph50%30.00 "Hg7 mi
4:35 pm95 °FSunny.13 mph50%30.00 "Hg10 mi
4:15 pm95 °FSunny.13 mph50%30.01 "Hg10 mi
3:55 pm95 °FSunny.14 mph50%30.02 "Hg10 mi
3:35 pm95 °FScattered clouds.5 mph50%30.02 "Hg10 mi
3:15 pm95 °FSunny.9 mph53%30.03 "Hg10 mi
2:55 pm95 °FSunny.12 mph50%30.04 "Hg10 mi
2:35 pm95 °FSunny.9 mph53%30.05 "Hg10 mi
2:15 pm95 °FScattered clouds.9 mph53%30.05 "Hg10 mi
1:55 pm93 °FScattered clouds.9 mph56%30.06 "Hg10 mi
1:35 pm95 °FSunny.6 mph53%30.06 "Hg10 mi
1:15 pm95 °FSunny.7 mph56%30.07 "Hg10 mi
Weather by CustomWeather, © 2019

See weather overview